GW2632 Weather Reports


Display with metric or nautical units.
time (UTC)temp
F
wind
direction
speed
MPH
gust
MPH
rain 1hr
in
rain 24hr
in
rain mn
in
humidity
%
barometer
mb
20260504050721 68 4 0.0 1.0 0.00 0.00 0.00 72 1017.2
20260504050218 68 346 0.0 0.0 0.00 0.00 0.00 73 1017.1
20260504045715 68 357 0.0 1.0 0.00 0.00 0.00 73 1017.2
20260504045209 68 348 0.0 0.0 0.00 0.00 0.00 72 1017.3
20260504044707 68 350 0.0 0.0 0.00 0.00 0.00 72 1017.4
20260504044204 68 348 0.0 0.0 0.00 0.00 0.00 72 1017.4
20260504043701 68 357 0.0 0.0 0.00 0.00 0.00 71 1017.3
20260504043158 68 347 0.0 0.0 0.00 0.00 0.00 71 1017.2
20260504042655 68 8 1.0 1.0 0.00 0.00 0.00 71 1017.4
20260504042152 68 355 0.0 1.0 0.00 0.00 0.00 71 1017.5
20260504041648 68 356 0.0 0.0 0.00 0.00 0.00 71 1017.2
20260504041144 69 325 0.0 1.0 0.00 0.00 0.00 71 1017.3
20260504040641 69 354 0.0 0.0 0.00 0.00 0.00 71 1017.4
20260504040138 69 357 0.0 0.0 0.00 0.00 0.00 71 1017.7
20260504035634 69 349 0.0 0.0 0.00 0.04 0.04 71 1017.5
20260504035131 69 4 0.0 1.0 0.00 0.04 0.04 71 1017.8
20260504034629 69 357 0.0 1.0 0.00 0.04 0.04 71 1017.5
20260504034126 69 352 0.0 0.0 0.00 0.04 0.04 71 1017.7
20260504033624 69 340 0.0 1.0 0.00 0.04 0.04 71 1017.5
20260504033121 69 353 0.0 1.0 0.00 0.04 0.04 71 1017.5
20260504032618 69 345 1.0 2.0 0.00 0.04 0.04 71 1017.3
20260504032114 69 352 0.0 1.0 0.00 0.04 0.04 71 1017.4
20260504031612 69 2 1.0 2.0 0.00 0.04 0.04 71 1017.3
20260504031108 69 2 1.0 2.0 0.00 0.04 0.04 71 1017.6
20260504030605 69 345 0.0 0.0 0.00 0.04 0.04 71 1017.5
20260504030101 69 6 0.0 1.0 0.00 0.04 0.04 71 1017.5
20260504025558 69 350 0.0 1.0 0.00 0.04 0.04 71 1017.7
20260504025055 69 353 0.0 1.0 0.00 0.04 0.04 70 1017.4
20260504024552 69 338 0.0 1.0 0.00 0.04 0.04 70 1017.5
20260504024049 69 341 0.0 0.0 0.00 0.04 0.04 70 1017.6
20260504023545 69 351 0.0 1.0 0.00 0.04 0.04 69 1017.3
20260504023041 69 354 0.0 1.0 0.00 0.04 0.04 69 1017.3
20260504022537 69 356 1.0 2.0 0.00 0.04 0.04 69 1017.3
20260504022034 69 353 0.0 2.0 0.00 0.04 0.04 69 1017.1
20260504021532 69 353 0.0 3.0 0.00 0.04 0.04 68 1017.5
20260504021028 69 350 0.0 0.0 0.00 0.04 0.04 68 1017.1
20260504020525 69 354 1.0 2.0 0.00 0.04 0.04 68 1017.3
20260504020022 69 346 0.0 2.0 0.00 0.04 0.04 68 1017.1
20260504015518 70 348 0.0 0.0 0.00 0.04 0.04 68 1017.0
20260504015014 70 348 0.0 0.0 0.00 0.04 0.04 68 1017.0
20260504014510 70 348 0.0 0.0 0.00 0.04 0.04 68 1017.0
20260504014008 70 21 1.0 1.0 0.00 0.04 0.04 68 1017.0
20260504013506 70 348 1.0 2.0 0.00 0.04 0.04 68 1016.8
20260504013001 70 341 1.0 2.0 0.00 0.04 0.04 68 1017.0
20260504012500 70 356 0.0 0.0 0.00 0.04 0.04 68 1017.1
20260504011957 70 352 0.0 0.0 0.00 0.04 0.04 68 1016.9
20260504011453 70 26 2.0 3.0 0.00 0.04 0.04 67 1016.9
20260504010949 70 354 0.0 2.0 0.00 0.04 0.04 68 1016.8
20260504010446 70 23 1.0 2.0 0.00 0.04 0.04 68 1016.9
20260504005942 70 343 0.0 1.0 0.00 0.04 0.04 68 1017.0
20260504005439 70 349 0.0 1.0 0.00 0.04 0.04 68 1016.8
20260504004936 70 349 0.0 1.0 0.00 0.04 0.04 67 1016.8
20260504004434 70 348 0.0 2.0 0.00 0.04 0.04 67 1016.9
20260504003930 70 346 0.0 1.0 0.00 0.04 0.04 67 1016.7
20260504003427 70 17 1.0 6.0 0.00 0.04 0.04 66 1016.7
20260504002924 70 16 0.0 2.0 0.00 0.04 0.04 67 1016.5
20260504002420 71 353 1.0 2.0 0.00 0.04 0.04 67 1016.6
20260504001918 71 353 0.0 2.0 0.00 0.04 0.04 67 1016.4
20260504001416 71 354 0.0 1.0 0.00 0.04 0.04 66 1016.4
20260504000912 71 342 0.0 1.0 0.00 0.04 0.04 66 1016.4
20260504000409 71 342 1.0 4.0 0.00 0.04 0.04 65 1016.0
20260503235906 72 1 1.0 4.0 0.00 0.04 0.04 65 1016.2
20260503235404 72 357 1.0 2.0 0.00 0.04 0.04 65 1016.1
20260503234901 72 315 1.0 6.0 0.00 0.04 0.04 64 1016.0
20260503234359 72 351 3.0 4.0 0.00 0.04 0.04 63 1016.0
20260503233856 73 166 1.0 3.0 0.00 0.04 0.04 62 1016.0
20260503233353 73 18 1.0 4.0 0.00 0.04 0.04 62 1016.1
20260503232849 73 342 0.0 1.0 0.00 0.04 0.04 62 1016.1
20260503232347 73 358 3.0 4.0 0.00 0.04 0.04 61 1015.9
20260503231844 73 36 2.0 2.0 0.00 0.04 0.04 61 1016.1
20260503231341 74 332 1.0 6.0 0.00 0.04 0.04 61 1015.8
20260503230837 74 18 1.0 9.0 0.00 0.04 0.04 60 1015.8
20260503230334 75 126 2.0 6.0 0.00 0.04 0.04 59 1016.0
20260503225832 74 83 5.0 7.0 0.00 0.04 0.04 60 1016.0
20260503225328 74 13 3.0 6.0 0.00 0.04 0.04 60 1016.0
20260503224824 75 67 2.0 4.0 0.00 0.04 0.04 60 1016.0
20260503224321 75 355 2.0 8.0 0.00 0.04 0.04 59 1016.1
20260503223819 76 164 2.0 6.0 0.00 0.04 0.04 57 1016.0
20260503223317 75 314 1.0 4.0 0.00 0.04 0.04 59 1016.1
20260503222812 75 250 1.0 2.0 0.00 0.04 0.04 58 1016.0
20260503222311 75 92 3.0 4.0 0.00 0.04 0.04 58 1016.0
20260503221809 75 13 4.0 6.0 0.00 0.04 0.04 57 1015.9
20260503221307 76 156 2.0 7.0 0.00 0.04 0.04 56 1016.0
20260503220802 76 357 1.0 4.0 0.00 0.04 0.04 56 1015.9
20260503220259 76 338 3.0 3.0 0.00 0.04 0.04 55 1015.8
20260503215756 76 3 1.0 1.0 0.00 0.04 0.04 55 1015.6
20260503215253 76 299 2.0 4.0 0.00 0.04 0.04 54 1015.8
20260503214751 75 1 1.0 6.0 0.00 0.04 0.04 56 1016.0
20260503214248 76 80 2.0 6.0 0.00 0.04 0.04 55 1015.8
20260503213746 77 102 4.0 7.0 0.00 0.04 0.04 55 1015.8
20260503213243 77 356 4.0 4.0 0.00 0.04 0.04 52 1015.9
20260503212739 76 304 1.0 7.0 0.00 0.04 0.04 56 1015.8
20260503212237 76 359 2.0 3.0 0.00 0.04 0.04 55 1015.5
20260503211735 77 234 4.0 6.0 0.00 0.04 0.04 53 1015.8
20260503211231 77 37 1.0 4.0 0.00 0.04 0.04 53 1015.6
20260503210726 77 145 4.0 6.0 0.00 0.04 0.04 53 1015.7
20260503210224 76 68 4.0 6.0 0.00 0.04 0.04 55 1015.8
20260503205719 77 19 2.0 4.0 0.00 0.04 0.04 55 1015.7
20260503205216 77 341 1.0 2.0 0.00 0.04 0.04 56 1015.7
20260503204712 77 356 9.0 10.0 0.00 0.04 0.04 54 1015.7
20260503204210 76 25 1.0 3.0 0.00 0.04 0.04 56 1016.0
20260503203707 77 3 2.0 6.0 0.00 0.04 0.04 54 1016.0
20260503203205 77 333 2.0 7.0 0.00 0.04 0.04 55 1016.0
20260503202701 77 89 2.0 3.0 0.00 0.04 0.04 55 1015.9
20260503202159 78 3 0.0 2.0 0.00 0.04 0.04 55 1016.0
20260503201657 78 59 2.0 6.0 0.00 0.04 0.04 53 1016.0
20260503201155 78 137 4.0 6.0 0.00 0.04 0.04 54 1016.0
20260503200650 78 57 3.0 6.0 0.00 0.04 0.04 54 1016.0
20260503200147 78 76 3.0 7.0 0.00 0.04 0.04 52 1016.0
20260503195644 79 335 1.0 2.0 0.00 0.04 0.04 52 1015.9
20260503195141 79 178 0.0 4.0 0.00 0.04 0.04 53 1016.2
20260503194638 79 47 2.0 6.0 0.00 0.04 0.04 52 1016.2
20260503194133 80 336 4.0 4.0 0.00 0.04 0.04 50 1016.2
20260503193631 78 84 3.0 3.0 0.00 0.04 0.04 52 1016.4
20260503193126 77 2 1.0 9.0 0.00 0.04 0.04 56 1016.4
20260503192622 78 30 3.0 4.0 0.00 0.04 0.04 54 1016.6
20260503192117 78 125 4.0 6.0 0.00 0.04 0.04 53 1016.7
20260503191615 79 122 3.0 6.0 0.00 0.04 0.04 52 1017.0
20260503191111 79 345 1.0 4.0 0.00 0.04 0.04 52 1017.0
20260503190609 80 167 3.0 4.0 0.00 0.04 0.04 51 1016.9
20260503190106 79 313 6.0 10.0 0.00 0.04 0.04 51 1016.8
20260503185602 78 334 1.0 2.0 0.00 0.04 0.04 52 1016.8
20260503185102 78 5 6.0 8.0 0.00 0.04 0.04 52 1017.0
20260503184557 78 39 1.0 3.0 0.00 0.04 0.04 53 1017.1
20260503184054 78 7 0.0 2.0 0.00 0.04 0.04 55 1017.3
20260503183551 78 271 0.0 3.0 0.00 0.04 0.04 53 1017.0
20260503183048 79 141 4.0 6.0 0.00 0.04 0.04 54 1017.4
20260503182547 79 24 2.0 3.0 0.00 0.04 0.04 51 1017.4
20260503182044 79 345 1.0 6.0 0.00 0.04 0.04 53 1017.5
20260503181541 80 357 2.0 10.0 0.00 0.04 0.04 51 1017.7
20260503181037 79 328 1.0 3.0 0.00 0.04 0.04 54 1017.6
20260503180535 79 339 1.0 6.0 0.00 0.04 0.04 52 1017.6
20260503180032 79 297 2.0 4.0 0.00 0.04 0.04 53 1017.6
20260503175529 78 7 1.0 3.0 0.00 0.04 0.04 54 1017.4
20260503175026 78 347 1.0 4.0 0.00 0.04 0.04 53 1017.5
20260503174524 77 9 3.0 3.0 0.00 0.04 0.04 55 1017.5
20260503174020 78 355 4.0 4.0 0.00 0.04 0.04 52 1017.8
20260503173515 78 27 1.0 2.0 0.00 0.04 0.04 53 1017.7
20260503173011 78 331 0.0 3.0 0.00 0.04 0.04 53 1017.6
20260503172509 79 40 5.0 8.0 0.00 0.04 0.04 52 1017.7
20260503172006 79 313 2.0 4.0 0.00 0.04 0.04 52 1017.9
20260503171502 79 298 2.0 4.0 0.00 0.04 0.04 53 1017.9
20260503171000 78 330 2.0 3.0 0.00 0.04 0.04 57 1017.9
20260503170456 77 50 3.0 6.0 0.00 0.04 0.04 56 1018.0
20260503150848 71 9 2.0 10.0 0.00 0.04 0.04 69 1018.2
20260503150344 71 356 3.0 6.0 0.00 0.04 0.04 71 1018.3
20260503140309 69 345 1.0 1.0 0.00 0.04 0.04 80 1017.9
20260503131238 66 344 0.0 2.0 0.00 0.04 0.04 85 1017.4
20260503130736 66 347 0.0 2.0 0.00 0.04 0.04 86 1017.4
20260503130233 66 5 2.0 3.0 0.00 0.04 0.04 86 1017.4
20260503120159 64 357 1.0 2.0 0.00 0.04 0.04 91 1016.8
20260503110626 63 357 0.0 2.0 0.00 0.04 0.04 93 1016.1
20260503110124 63 349 2.0 2.0 0.00 0.04 0.04 93 1015.9
20260503081439 63 343 0.0 2.0 0.00 0.04 0.04 94 1014.8
20260503080937 64 335 0.0 6.0 0.00 0.04 0.04 94 1014.8
20260503080433 64 5 0.0 1.0 0.00 0.04 0.04 95 1014.8
20260503072909 64 344 0.0 0.0 0.00 0.04 0.04 95 1014.8
20260503072407 64 349 0.0 0.0 0.00 0.04 0.04 95 1014.9
20260503071903 64 24 0.0 0.0 0.00 0.04 0.04 95 1014.6
20260503071401 64 348 0.0 0.0 0.00 0.04 0.04 95 1014.8
20260503070856 64 4 0.0 1.0 0.00 0.04 0.04 95 1014.8
20260503070354 64 350 0.0 0.0 0.00 0.04 0.04 95 1014.6
20260503060320 64 338 0.0 2.0 0.00 0.04 0.04 95 1014.9
20260503054807 64 347 0.0 0.0 0.00 0.04 0.04 95 1015.4
20260503054303 64 344 0.0 0.0 0.00 0.04 0.04 95 1015.2
20260503053801 64 351 0.0 0.0 0.00 0.04 0.04 95 1015.3
20260503053300 64 277 0.0 1.0 0.07 0.04 0.04 95 1015.4
20260503052755 64 345 0.0 0.0 0.07 0.04 0.04 95 1015.4
20260503052253 64 351 0.0 1.0 0.00 0.03 0.03 95 1015.6
20260503051748 64 347 0.0 1.0 0.00 0.03 0.03 94 1015.4